Temp
63 63 63 62 62 62 62 61 60 61 61 62 62 62 63 61 60 77 84 83 83 67 72 87 87 87 88 84 85 86 79 77 76 76 78 86 83 89 90 88 89 91 92 92 91
63 63 63 62 61 61 61 61 60 61 61 61 61 62 62 61 80 85 75 70 68 68 90 87 84 85 86 82 84 83 78 77 82 83 81 84 84 87 87 88 88 89 90 90 89
63 63 62 62 62 61 61 60 60 61 61 61 61 62 62 66 82 86 68 68 69 73 92 90 88 85 81 82 82 79 76 80 82 84 86 85 86 88 86 86 89 89 93 88 88
61 61 63 62 61 61 60 59 60 60 61 61 61 62 62 83 73 89 69 68 70 89 91 88 85 81 79 78 81 75 80 82 82 84 84 83 88 85 88 90 95 94 93 91 88
59 59 60 60 61 60 59 59 59 59 60 60 61 61 78 81 84 86 69 71 86 88 87 85 81 81 77 79 79 76 81 81 83 83 84 86 83 84 87 93 96 95 92 92 91
58 58 59 59 60 60 59 59 58 58 59 60 61 60 78 71 89 88 87 86 90 88 86 86 83 84 79 78 77 79 80 81 82 83 85 80 83 82 88 94 93 93 94 96 95
58 58 58 58 58 59 59 58 57 58 59 60 61 72 72 76 88 90 86 89 90 89 85 87 87 81 81 77 81 79 74 81 82 81 79 81 79 79 90 89 88 91 93 95 96
58 57 57 57 57 57 57 57 57 58 59 60 61 73 71 88 89 85 90 88 89 91 88 89 88 83 80 81 79 74 75 71 80 79 79 79 74 82 91 88 87 90 91 92 95
57 57 56 56 56 56 56 56 57 59 60 61 71 72 71 81 82 88 90 84 88 88 88 86 86 80 79 74 72 73 68 69 73 78 77 75 72 84 90 88 85 88 91 92 94
57 57 56 56 56 55 55 56 61 60 67 73 74 68 77 76 81 84 87 84 84 82 79 80 81 75 76 73 64 68 67 70 69 76 75 74 74 82 88 88 86 87 89 91 93
57 56 56 56 56 55 61 74 69 67 68 72 72 73 74 80 84 82 84 81 83 81 72 78 72 68 74 75 75 71 68 67 73 78 73 72 75 81 87 86 85 87 88 90 92
56 56 56 55 55 55 61 66 61 63 59 71 71 72 76 77 71 80 84 76 74 70 77 70 66 77 79 75 71 70 67 68 73 74 70 74 74 81 82 83 84 86 87 89 91
55 55 55 55 55 60 60 53 64 65 59 66 71 72 74 76 72 76 80 77 72 70 72 69 74 76 73 70 67 68 66 68 68 73 75 73 73 77 81 82 84 86 86 87 86
55 55 54 54 56 57 55 61 59 61 46 59 63 69 73 74 68 83 85 79 74 69 72 72 79 70 69 68 70 65 75 70 68 66 63 72 63 75 79 80 81 83 84 85 86
54 54 54 55 56 54 55 62 63 56 34 62 64 77 74 69 75 75 84 78 69 70 71 68 69 70 66 70 73 69 71 69 68 66 66 67 63 73 77 77 80 82 83 84 85
54 54 54 58 59 57 63 57 57 45 33 55 62 63 63 67 70 75 73 79 79 70 71 71 78 75 74 75 74 72 67 66 66 67 56 66 65 69 74 77 80 82 82 83 84
53 53 56 61 55 61 61 54 40 36 54 55 57 62 62 62 63 67 64 63 63 57 57 66 68 74 73 68 70 69 64 55 53 55 56 66 64 69 78 80 82 81 81 82 84
52 53 54 60 61 60 59 48 31 47 51 59 58 60 57 63 63 63 63 61 68 69 65 58 55 68 74 69 66 64 66 58 49 53 59 63 58 69 80 84 82 82 80 82 83
52 57 57 59 59 59 52 34 38 49 54 52 55 52 54 61 61 61 59 61 68 69 60 60 61 75 74 73 72 64 58 71 60 63 55 63 70 75 78 76 78 81 80 82 83
51 51 54 58 59 56 45 38 45 53 52 52 47 53 49 55 56 57 58 64 64 71 72 65 57 71 72 73 72 68 74 59 60 48 48 60 64 65 73 76 76 76 78 79 82
50 46 54 58 57 50 35 41 49 56 54 49 48 48 51 49 51 54 57 64 68 67 70 66 60 62 69 62 64 63 62 64 66 61 53 52 62 77 75 78 76 76 77 79 79
48 39 53 57 41 44 37 44 48 51 54 51 52 49 46 49 47 48 51 60 71 70 61 64 56 51 60 71 72 70 63 65 56 56 59 59 59 76 78 80 79 76 74 76 77
41 45 53 51 35 37 43 43 46 47 49 50 49 51 54 49 40 48 51 62 64 62 61 64 53 44 49 61 68 63 67 68 66 64 56 52 59 77 74 74 76 73 73 73 73
38 33 41 40 46 41 40 40 40 49 47 50 49 52 49 47 51 41 47 50 54 54 53 58 56 48 43 53 65 58 62 66 63 52 55 60 65 72 71 71 72 73 73 73 72
36 36 45 32 34 38 41 41 39 39 47 50 46 46 45 40 45 45 51 52 53 55 56 57 49 53 56 58 60 62 64 64 60 61 57 62 66 72 74 73 72 74 73 71 71
34 35 43 42 44 39 38 37 38 42 45 43 42 47 48 42 45 42 47 45 43 44 43 51 44 53 50 57 58 56 62 65 66 64 65 67 66 77 77 76 70 71 71 71 70
41 37 36 39 40 35 37 39 40 44 45 48 46 45 43 47 52 53 52 47 45 40 36 38 42 41 43 55 54 46 56 61 65 68 66 60 68 75 70 69 72 71 71 70 68
MSLP
1020.93 1020.78 1020.70 1020.70 1020.45 1020.18 1020.00 1019.67 1019.28 1018.84 1018.42 1017.82 1017.14 1016.46 1016.03 1015.63 1015.21 1014.83 1013.13 1012.96 1012.78 1013.46 1013.73 1013.49 1013.31 1012.78 1012.34 1011.57 1011.32 1010.60 1008.67 1007.25 1007.24 1007.41 1007.50 1007.66 1007.47 1007.28 1007.50 1006.91 1006.98 1007.24 1007.32 1008.07 1009.19
1021.03 1020.89 1020.70 1020.56 1020.52 1020.34 1020.02 1019.75 1019.45 1018.97 1018.45 1017.90 1017.13 1016.31 1015.75 1015.46 1014.31 1013.17 1012.84 1012.81 1013.17 1013.21 1012.73 1012.52 1012.48 1012.51 1011.51 1011.45 1010.99 1010.02 1008.67 1007.73 1008.06 1008.07 1007.83 1007.77 1007.53 1007.19 1006.79 1006.34 1006.34 1006.88 1007.73 1008.67 1009.33
1020.98 1020.97 1020.89 1020.60 1020.36 1020.25 1020.06 1019.73 1019.44 1019.12 1018.63 1017.98 1017.24 1016.26 1015.34 1015.05 1013.53 1012.37 1012.79 1012.84 1013.15 1013.29 1012.26 1012.13 1012.05 1012.05 1011.38 1011.43 1010.69 1010.15 1009.01 1008.90 1008.68 1008.53 1008.32 1007.84 1007.38 1007.15 1006.47 1005.69 1005.67 1005.96 1006.26 1008.01 1008.74
1021.02 1020.92 1020.88 1020.71 1020.50 1020.16 1019.90 1019.65 1019.32 1019.02 1018.75 1018.20 1017.40 1016.36 1015.04 1014.15 1012.56 1012.49 1012.84 1013.03 1013.29 1012.84 1012.20 1012.00 1011.85 1011.32 1010.91 1010.65 1010.89 1010.25 1009.72 1009.38 1008.99 1008.96 1008.55 1007.97 1007.66 1007.06 1006.41 1005.81 1005.67 1005.95 1006.39 1007.13 1007.70
1021.26 1021.06 1020.87 1020.71 1020.53 1020.32 1020.00 1019.59 1019.18 1018.85 1018.59 1018.34 1017.67 1016.64 1014.95 1013.49 1012.01 1012.62 1013.03 1013.28 1013.04 1012.79 1012.18 1011.76 1011.58 1011.24 1010.74 1010.49 1010.65 1010.39 1009.62 1009.60 1009.38 1009.08 1008.63 1008.13 1007.57 1007.12 1006.31 1005.95 1005.83 1005.80 1006.21 1006.30 1006.72
1021.41 1021.21 1020.96 1020.82 1020.57 1020.24 1020.06 1019.70 1019.22 1018.82 1018.36 1018.13 1017.89 1017.09 1015.45 1013.64 1012.50 1012.63 1012.60 1012.77 1012.32 1012.32 1012.04 1011.98 1011.45 1011.41 1011.15 1010.84 1010.64 1010.17 1009.95 1009.44 1009.09 1008.54 1008.17 1007.73 1006.82 1006.87 1006.12 1005.58 1005.47 1005.48 1005.32 1005.34 1005.56
1021.51 1021.34 1021.14 1020.79 1020.66 1020.35 1019.97 1019.66 1019.23 1018.78 1018.48 1017.91 1017.78 1017.20 1015.53 1013.14 1012.62 1012.87 1012.69 1012.28 1012.22 1011.93 1011.66 1011.75 1011.72 1011.66 1011.26 1010.77 1010.85 1010.53 1009.81 1008.62 1008.16 1008.15 1007.95 1007.92 1006.45 1005.90 1005.57 1005.64 1005.29 1004.99 1004.88 1004.66 1004.59
1021.80 1021.39 1021.20 1020.96 1020.60 1020.42 1020.04 1019.57 1019.11 1018.68 1018.32 1018.01 1017.60 1016.77 1014.46 1012.77 1012.72 1012.80 1012.59 1012.13 1012.18 1012.07 1011.97 1011.85 1011.68 1011.51 1011.22 1011.06 1010.68 1010.07 1009.51 1007.92 1007.59 1007.99 1007.92 1007.79 1005.56 1005.36 1005.03 1004.93 1004.72 1004.39 1004.31 1004.38 1004.13
1022.01 1021.64 1021.26 1021.16 1020.71 1020.40 1019.81 1019.34 1018.70 1018.42 1018.14 1017.78 1017.26 1016.00 1013.24 1012.72 1012.52 1011.82 1011.93 1011.68 1011.60 1011.82 1011.89 1011.98 1011.60 1010.98 1011.12 1010.47 1009.65 1009.25 1008.29 1007.95 1007.46 1007.96 1007.75 1007.45 1006.09 1005.31 1004.78 1004.46 1004.28 1004.03 1003.59 1003.35 1003.26
1022.02 1021.86 1021.36 1021.16 1020.87 1020.35 1019.55 1018.54 1017.98 1018.13 1017.49 1017.06 1016.74 1015.87 1012.99 1012.14 1012.28 1011.98 1012.07 1011.89 1011.29 1011.49 1011.68 1011.51 1010.94 1010.34 1010.01 1009.80 1008.40 1008.08 1008.29 1008.00 1007.83 1007.62 1007.75 1007.13 1005.91 1004.90 1004.10 1003.49 1003.46 1003.57 1003.20 1002.95 1002.61
1022.08 1021.76 1021.65 1021.11 1020.88 1020.36 1018.96 1017.33 1017.74 1017.33 1016.57 1015.05 1014.35 1013.37 1012.58 1012.34 1012.14 1011.65 1011.80 1011.55 1011.17 1010.70 1010.41 1010.48 1010.00 1008.79 1008.38 1009.08 1008.83 1008.99 1008.85 1008.21 1007.89 1007.61 1007.46 1006.49 1005.39 1004.11 1003.26 1002.91 1002.75 1002.81 1002.55 1002.19 1002.14
1022.24 1021.81 1021.55 1020.99 1020.76 1019.89 1019.36 1018.21 1019.04 1019.23 1016.54 1014.87 1014.42 1013.64 1013.03 1012.91 1011.97 1011.28 1011.60 1011.16 1010.74 1009.72 1009.64 1010.09 1008.72 1008.16 1008.34 1008.91 1009.12 1008.89 1008.62 1008.08 1007.71 1007.66 1007.63 1005.87 1004.84 1003.65 1003.02 1002.67 1002.63 1002.49 1002.21 1001.99 1001.96
1022.12 1021.91 1021.43 1021.14 1020.47 1019.77 1019.44 1020.54 1020.23 1019.39 1017.20 1014.11 1013.59 1012.61 1012.16 1012.40 1011.13 1010.00 1010.86 1010.36 1009.97 1009.29 1008.88 1008.50 1007.64 1007.91 1008.51 1008.69 1008.85 1008.47 1008.17 1007.91 1007.75 1007.37 1006.94 1005.70 1003.77 1002.88 1002.66 1002.63 1002.52 1002.45 1002.51 1002.54 1002.48
1022.33 1022.14 1021.65 1020.96 1020.32 1020.55 1020.23 1020.41 1020.33 1019.75 1017.87 1013.71 1012.71 1011.14 1011.17 1011.25 1009.82 1009.76 1009.66 1009.92 1009.41 1008.73 1008.44 1008.05 1007.57 1008.19 1008.30 1008.16 1008.36 1007.62 1007.57 1008.06 1007.80 1007.42 1005.84 1005.83 1003.31 1002.28 1002.13 1002.06 1002.19 1002.37 1002.45 1002.70 1002.67
1022.66 1022.35 1021.83 1021.25 1021.15 1020.96 1021.19 1020.49 1019.98 1019.72 1017.19 1012.96 1011.25 1010.72 1010.22 1009.99 1008.42 1007.98 1008.54 1009.08 1008.49 1008.43 1008.54 1006.98 1007.43 1007.25 1007.43 1007.30 1007.84 1007.32 1008.09 1007.98 1007.76 1007.14 1006.27 1005.18 1004.41 1001.77 1002.05 1001.52 1001.62 1002.11 1002.62 1002.96 1003.15
1022.64 1022.50 1021.97 1021.48 1021.34 1021.59 1020.94 1020.71 1020.04 1019.09 1015.45 1012.29 1010.80 1009.89 1009.70 1009.31 1008.60 1008.23 1008.71 1008.67 1008.21 1008.43 1008.02 1007.04 1007.18 1007.10 1006.77 1006.99 1007.35 1008.07 1008.29 1008.08 1007.73 1006.64 1005.30 1004.23 1003.66 1001.18 1000.80 1000.93 1001.31 1001.95 1002.49 1002.95 1003.18
1022.79 1022.68 1022.00 1021.80 1021.54 1021.43 1021.12 1020.68 1019.95 1017.10 1014.13 1011.24 1010.18 1009.80 1009.37 1008.78 1008.58 1008.34 1008.19 1008.05 1007.29 1007.63 1007.14 1006.67 1006.57 1006.95 1007.18 1007.01 1007.46 1007.79 1007.48 1006.88 1006.27 1005.36 1003.67 1003.48 1002.90 1001.34 1000.56 1000.87 1001.07 1001.58 1002.36 1002.89 1003.17
1022.87 1022.82 1022.63 1022.00 1021.84 1021.66 1020.84 1020.67 1018.58 1014.54 1013.06 1011.64 1011.04 1010.18 1009.14 1008.75 1008.45 1008.16 1007.70 1007.00 1006.84 1006.16 1005.45 1005.54 1005.41 1005.78 1006.05 1005.84 1005.96 1006.65 1006.41 1005.46 1004.45 1003.92 1003.02 1003.69 1001.93 1000.62 1000.45 1000.76 1001.59 1001.86 1002.49 1002.87 1003.17
1023.05 1022.76 1022.26 1022.03 1021.83 1021.82 1020.78 1019.65 1016.53 1014.72 1013.87 1012.89 1012.05 1010.87 1009.74 1009.02 1008.81 1008.13 1007.38 1006.28 1005.53 1005.71 1005.26 1004.46 1003.74 1004.34 1004.70 1005.10 1005.76 1005.74 1005.93 1004.60 1005.10 1004.35 1004.00 1002.53 1001.11 1000.93 1000.78 1000.91 1001.45 1001.73 1002.33 1002.50 1002.90
1022.92 1022.71 1021.88 1021.90 1021.91 1021.46 1020.58 1018.27 1016.67 1015.92 1015.30 1014.48 1012.86 1011.62 1010.40 1009.71 1009.08 1008.73 1007.53 1006.40 1005.57 1005.09 1004.98 1004.49 1003.98 1003.63 1004.06 1005.15 1005.24 1004.62 1004.60 1005.00 1005.10 1003.65 1002.62 1000.94 1000.05 999.56 999.58 999.87 1000.88 1001.47 1002.22 1002.75 1002.90
1022.66 1022.11 1021.77 1022.10 1022.06 1021.23 1019.71 1017.91 1016.92 1016.28 1016.15 1015.56 1014.14 1013.16 1012.09 1011.54 1010.63 1008.94 1007.60 1006.67 1006.10 1005.37 1005.13 1004.47 1005.15 1003.87 1004.09 1004.24 1003.41 1004.50 1004.19 1004.09 1003.23 1003.04 1001.62 1000.38 998.97 998.63 999.27 999.46 1000.35 1001.32 1002.38 1003.06 1003.34
1022.20 1021.85 1021.94 1021.91 1021.92 1020.71 1019.22 1018.26 1017.65 1016.65 1016.40 1015.94 1015.07 1014.28 1013.75 1013.24 1012.03 1010.87 1008.60 1007.27 1006.06 1005.78 1005.26 1005.14 1005.40 1004.93 1003.92 1003.45 1003.38 1002.89 1002.64 1002.51 1002.25 1002.02 1001.93 1000.80 998.89 999.45 999.42 999.51 1000.24 1001.69 1002.72 1003.57 1003.88
1022.09 1021.61 1021.94 1021.83 1020.47 1019.77 1019.21 1018.53 1017.94 1017.00 1016.24 1015.37 1014.74 1014.43 1014.15 1013.62 1013.42 1011.90 1010.22 1008.88 1008.27 1007.77 1006.02 1005.63 1005.43 1005.86 1005.37 1004.38 1003.29 1002.59 1002.01 1002.05 1002.10 1001.87 1001.16 1000.35 998.88 999.32 999.93 1000.22 1000.82 1001.78 1002.78 1003.79 1004.20
1022.42 1021.70 1021.48 1021.52 1020.08 1019.37 1018.79 1018.03 1017.47 1017.18 1016.45 1015.79 1015.05 1014.91 1014.51 1013.86 1013.63 1012.82 1011.58 1010.80 1009.89 1010.07 1008.70 1006.96 1005.56 1005.17 1004.95 1003.09 1002.23 1002.30 1001.83 1001.27 1001.16 1001.20 1000.25 999.46 998.33 998.95 999.75 1000.44 1001.34 1002.16 1003.09 1003.85 1004.65
1021.89 1020.63 1019.41 1019.75 1019.93 1019.44 1018.89 1017.78 1016.92 1016.73 1016.62 1016.15 1015.10 1015.17 1014.84 1014.28 1013.70 1012.94 1012.66 1011.73 1011.20 1011.02 1009.43 1008.78 1006.77 1006.14 1004.68 1003.78 1002.90 1001.67 1000.71 1000.76 1000.69 1000.09 999.54 998.70 998.22 998.17 998.96 1000.10 1001.04 1001.89 1002.90 1003.88 1004.78
1020.84 1020.73 1019.92 1019.03 1018.51 1018.68 1018.43 1017.49 1016.85 1016.24 1016.05 1015.45 1015.07 1014.64 1014.40 1014.29 1014.25 1013.61 1013.66 1013.91 1013.25 1012.29 1012.45 1010.24 1008.55 1007.10 1005.51 1003.68 1002.75 1002.00 1001.08 1000.08 998.87 999.20 998.87 998.22 997.73 997.95 998.95 1000.00 1001.29 1001.92 1002.80 1003.37 1003.98
1020.29 1020.76 1020.49 1018.23 1017.79 1017.77 1016.24 1016.07 1015.78 1016.28 1016.04 1015.55 1015.47 1015.08 1014.66 1014.35 1014.35 1014.26 1014.20 1014.66 1014.72 1014.82 1013.81 1013.10 1010.37 1008.80 1005.41 1003.61 1003.13 1001.94 1000.12 999.73 998.94 998.23 998.34 997.94 997.59 998.34 999.24 1000.08 1000.80 1001.73 1002.35 1003.36 1004.58
Wind_Speed
7 7 8 10 10 10 11 11 11 12 14 16 18 20 17 12 5 7 5 4 4 15 8 7 5 3 5 1 3 3 6 7 5 3 4 7 9 5 3 5 4 5 5 6 13
7 8 8 8 10 10 11 11 12 12 13 16 18 21 19 15 4 4 3 1 14 13 11 9 5 5 4 2 3 7 6 2 2 3 3 5 6 7 5 5 8 6 4 5 14
6 7 8 8 8 10 11 10 11 13 13 15 18 21 21 12 6 4 6 7 15 11 3 4 4 4 6 4 3 1 7 2 5 7 9 9 8 3 7 8 2 5 4 12 14
6 6 8 9 9 9 9 9 11 11 13 15 18 21 25 6 2 4 4 7 10 7 7 6 5 6 5 6 2 8 6 9 8 10 9 12 12 12 11 12 5 4 2 12 16
9 8 8 8 8 9 10 9 10 10 11 13 17 21 10 7 2 5 6 7 10 6 7 6 7 6 8 3 5 10 9 7 10 11 14 16 18 17 15 14 12 9 7 11 14
9 9 10 10 9 8 10 11 10 10 10 10 13 20 5 9 4 2 6 10 8 9 6 7 3 3 7 7 8 4 10 14 14 15 18 16 17 5 13 15 13 14 15 14 15
9 9 10 10 12 11 9 11 11 11 11 9 8 6 7 11 3 2 5 6 6 7 7 5 4 6 1 6 3 8 13 13 8 2 4 7 14 13 15 7 11 12 15 16 13
10 10 10 10 10 12 12 11 12 12 12 8 6 3 9 4 4 9 9 11 7 8 6 3 4 5 7 2 9 9 9 9 8 4 3 5 10 2 10 9 14 14 13 15 19
9 10 11 11 10 12 13 14 14 11 9 8 5 3 10 2 8 4 11 11 11 9 6 3 5 5 5 11 10 8 10 5 6 2 2 2 13 12 14 12 15 17 16 15 16
9 10 10 11 12 13 16 12 9 8 6 4 3 6 8 4 5 6 1 9 8 10 9 10 9 11 10 10 11 6 9 8 9 2 8 15 16 15 18 19 15 17 18 16 16
10 10 11 12 13 14 12 5 6 7 7 9 1 5 0 6 4 1 1 6 11 14 16 14 13 17 16 14 13 10 13 15 12 12 13 11 15 17 16 13 15 14 14 15 13
10 11 13 14 15 16 7 2 8 8 10 10 16 15 15 6 8 10 3 8 10 17 18 10 19 20 13 12 14 13 14 17 12 5 6 13 19 20 7 5 4 7 8 9 8
11 12 13 15 16 4 6 5 12 9 8 7 13 14 14 14 14 20 9 5 13 17 16 22 12 8 14 16 15 16 18 16 15 10 16 16 18 8 4 3 2 3 3 2 3
9 11 12 19 2 6 3 13 10 4 4 6 8 9 12 11 14 21 18 13 12 17 20 18 19 13 9 13 15 18 12 14 14 8 8 3 7 8 5 6 3 1 4 4 4
8 9 10 10 3 4 9 15 8 2 4 5 7 2 4 17 5 15 22 18 22 16 10 20 15 20 20 20 12 14 5 9 10 12 10 15 9 7 5 10 7 5 6 5 5
8 9 8 3 3 4 12 11 2 5 11 7 6 11 12 19 19 3 12 19 19 21 17 22 7 13 17 16 17 3 8 6 8 9 12 17 14 9 12 14 9 8 6 5 4
6 7 4 2 2 7 9 2 3 8 2 9 9 10 15 12 15 19 15 18 18 19 22 26 24 16 9 11 7 15 11 6 9 9 11 2 10 13 4 6 12 10 7 6 5
5 3 2 1 3 6 2 2 10 8 15 5 4 10 18 12 15 19 16 19 25 26 18 24 23 27 19 26 14 20 17 11 11 12 12 5 9 7 12 12 9 6 6 9 8
5 1 3 2 4 2 3 8 7 5 4 8 13 15 17 19 15 14 23 23 25 27 29 21 28 20 21 26 23 14 18 24 19 19 10 13 14 12 12 9 13 11 9 10 7
3 1 3 3 5 4 5 10 9 6 4 7 11 8 14 17 17 13 14 13 25 26 26 24 26 21 18 14 23 28 9 11 13 15 18 13 18 12 15 16 19 15 11 9 6
4 3 5 6 6 6 8 10 10 11 7 8 11 13 13 11 10 16 25 23 20 21 24 20 21 24 13 18 24 15 20 14 12 14 14 16 13 11 18 15 19 16 12 8 6
4 4 5 9 8 6 11 7 7 14 7 8 11 15 15 12 10 10 10 20 11 22 24 19 12 20 28 17 19 23 27 28 13 18 9 14 16 2 9 12 10 16 12 6 6
4 4 5 10 9 12 10 11 16 15 15 10 13 12 15 21 10 13 15 17 22 25 16 15 11 14 25 24 18 14 25 22 24 14 14 14 15 4 5 9 12 17 11 8 6
3 5 5 6 11 15 16 20 21 13 19 23 19 15 17 20 16 12 15 10 23 31 28 10 11 17 19 25 21 18 23 26 24 12 19 19 23 13 8 10 14 13 11 10 8
5 6 8 7 13 20 19 14 18 22 16 14 16 22 22 22 21 25 24 27 23 22 17 9 16 16 22 32 30 27 25 26 23 26 23 22 24 21 14 12 17 13 13 13 12
4 4 7 14 15 22 22 25 26 24 19 16 21 21 16 17 21 24 23 20 15 18 15 12 5 20 27 29 28 28 24 26 28 28 27 28 23 18 8 9 13 14 14 11 9
3 2 2 10 20 15 22 27 28 24 23 24 23 20 18 15 17 19 20 13 17 18 20 14 4 6 26 28 22 17 31 28 24 21 21 22 23 16 11 13 14 11 9 8 8
Wind_Direction
30 23 12 2 359 355 350 349 348 345 341 337 334 328 332 331 331 218 203 65 143 157 193 156 211 212 233 226 293 277 243 193 157 225 35 16 350 83 305 247 204 182 264 89 136
30 23 16 8 355 350 349 346 342 341 338 334 332 326 327 329 250 186 29 172 147 169 166 182 190 214 233 250 226 268 261 174 51 336 293 315 328 346 282 187 208 213 161 167 159
17 9 1 2 1 351 346 345 342 337 336 333 331 326 324 315 249 88 8 159 160 191 206 155 163 253 269 264 182 192 275 6 270 284 299 298 291 300 279 244 248 264 262 185 189
26 1 339 343 344 346 342 340 341 340 335 334 332 325 321 267 284 59 45 143 157 234 175 180 211 235 256 253 231 265 255 277 297 302 267 279 309 281 269 277 315 312 280 190 203
24 24 12 347 335 336 336 331 332 333 333 335 334 324 334 293 294 75 135 143 176 198 230 209 233 248 261 265 251 253 286 289 281 268 268 284 274 276 271 265 275 268 241 217 221
22 16 14 356 339 338 330 324 322 321 324 332 336 318 317 277 57 104 138 161 189 204 208 219 262 294 290 268 257 346 292 286 281 278 274 263 269 265 258 262 259 248 247 234 230
25 17 8 5 349 331 321 316 311 309 312 321 340 320 282 269 51 14 182 210 206 218 216 214 238 239 346 255 311 288 283 283 259 275 240 288 249 229 258 276 274 249 242 245 247
13 17 6 360 355 346 332 306 298 299 304 305 313 273 272 273 302 269 250 234 221 229 246 165 214 257 245 304 251 273 276 277 137 297 134 238 277 336 257 263 259 260 251 253 254
8 6 7 355 351 334 320 302 283 291 285 281 240 262 270 314 254 290 231 239 210 209 206 176 225 249 212 252 270 191 282 272 294 266 256 281 301 287 296 256 261 269 266 260 255
9 360 1 349 340 334 315 279 291 281 223 211 259 254 226 283 334 318 273 238 211 186 199 213 218 233 223 233 256 304 273 257 275 154 281 291 274 275 276 267 255 265 274 267 261
5 4 349 343 335 330 321 287 224 194 207 239 179 277 345 340 258 117 300 201 214 202 208 204 224 228 233 230 264 277 275 277 283 288 293 269 284 289 288 280 265 256 262 264 251
12 3 349 341 328 321 289 9 63 348 294 246 256 259 272 296 281 253 203 222 204 216 214 192 232 243 250 237 241 241 262 273 283 280 260 286 297 291 295 274 261 281 272 266 267
19 4 352 332 316 318 42 19 321 307 261 258 238 247 237 214 241 247 208 232 234 233 211 228 238 254 209 227 238 238 247 265 271 299 274 280 275 221 186 231 250 232 270 276 326
20 14 354 327 37 346 71 337 321 286 298 242 215 242 212 220 248 232 220 228 224 242 227 244 243 202 206 235 227 244 236 251 270 265 264 241 281 240 226 198 201 111 112 90 69
26 15 2 22 347 42 316 327 304 240 265 157 200 91 194 200 269 204 209 213 228 219 214 226 224 228 232 237 216 233 221 240 256 259 274 233 250 262 211 212 175 113 103 99 70
34 12 338 70 61 325 324 315 262 192 232 231 229 208 188 211 232 179 194 228 229 232 229 253 216 234 238 241 216 294 210 224 235 249 240 250 230 238 232 223 181 141 124 123 91
41 21 24 14 31 326 324 346 180 219 103 221 213 207 220 214 230 224 195 192 202 205 226 234 229 221 225 200 188 205 200 230 224 211 253 10 235 242 267 213 182 150 133 130 109
64 7 29 354 297 331 275 191 224 227 220 56 3 276 238 219 232 216 225 217 216 222 237 229 232 221 211 226 200 207 208 233 248 248 258 147 234 232 243 212 201 160 140 143 125
158 50 273 177 246 269 214 209 229 245 297 296 291 274 264 236 253 225 220 223 217 216 232 243 235 243 214 220 221 202 224 237 265 264 268 262 244 267 240 208 193 180 168 157 133
121 24 247 172 200 210 219 239 230 257 331 310 268 265 276 260 240 228 229 233 235 227 221 244 258 250 221 229 222 228 251 212 215 242 238 242 247 249 225 213 196 183 185 177 139
172 215 110 188 184 204 225 234 253 262 267 250 265 282 280 286 296 285 242 254 249 232 231 217 241 258 229 204 214 206 225 229 238 232 244 257 264 215 243 231 197 181 172 165 124
177 223 129 177 189 219 231 241 258 254 253 260 261 265 256 280 276 280 274 261 258 239 231 215 205 253 241 230 238 217 214 212 219 211 231 259 264 166 242 247 203 172 153 148 126
198 216 152 194 221 220 235 250 249 249 246 239 240 233 253 254 274 266 280 279 296 304 256 218 214 222 250 259 218 236 228 237 227 254 250 235 252 185 162 195 177 160 149 144 107
180 206 193 212 242 240 236 245 247 250 257 254 257 266 262 255 242 265 275 306 325 307 303 304 211 203 224 241 236 219 230 224 225 225 233 237 247 219 195 184 176 160 158 148 140
192 226 216 201 219 237 240 246 245 240 246 275 243 245 251 260 260 263 269 273 291 314 293 289 252 211 224 240 260 268 232 227 227 221 226 238 245 252 247 208 185 168 158 157 160
196 206 223 247 230 218 229 240 249 249 244 244 234 256 267 253 258 271 282 294 259 324 331 320 278 228 237 242 243 255 260 257 234 232 240 247 257 262 247 157 166 175 172 155 123
167 145 317 239 230 220 220 230 240 243 247 251 258 270 270 266 283 288 290 305 286 269 287 296 244 271 237 229 246 248 236 247 248 236 246 243 245 249 202 210 192 162 146 143 143